SOYUZ-MS 23

Last updated on Wed Sep 27 2023 00:02:07 GMT+0000 (Coordinated Universal Time)

1 55688U 23024A 23268.65608425 .00019929 00000+0 36044-3 0 9999 2 55688 51.6426 190.8839 0005828 62.2489 20.2238 15.49659005417373

Satellite not in orbit

SOYUZ-MS 23